Tracking 27122 objects as of 26-Mar-2023
HD Live streaming from Space Station
objects crossing your sky now

COSMOS 540

Track COSMOS 540 now!
10-day predictions
COSMOS 540 is classified as:


NORAD ID: 6323
Int'l Code: 1972-104A
Perigee: 763.9 km
Apogee: 789.4 km
Inclination: 74.1 °
Period: 100.2 minutes
Semi major axis: 7147 km
RCS: 2.1717 m2 (large)
Launch date: December 25, 1972
Source: Commonwealth of Independent States (former USSR) (CIS)
Launch site: PLESETSK MISSILE AND SPACE COMPLEX (PKMTR)
Your satellite tracking list
Your tracking list is empty




NASA's NSSDC Master Catalog

Two Line Element Set (TLE):
1  6323U 72104A   23084.17846075  .00000401  00000-0  14472-3 0  9999
2  6323  74.0782 103.9065 0017852   8.0712 352.0725 14.36676686629777
Source of the keplerian elements: AFSPC